Terug naar catalogus

GAOFEN 2

ActiefWetenschapSSO
NORAD 40118·PAYLOAD·🇨🇳 China

Gelanceerd Aug 19, 2014 vanaf Taiyuan Satellite Launch Center

Loading…

Volgende Passages (komende 24 uur)

TLE

VersSource: Space-Track

Epoch: Sep 14, 2026, 15:11 UTC

1 40118U 14049A   26257.63287757  .00000648  00000-0  90495-4 0  9998
2 40118  98.0026 321.7183 0006272 312.3601  47.7080 14.80999721652479

Volg GAOFEN 2 in realtime met AllMySat

Download on the App Store